GW1618 Weather Reports


Display with metric or nautical units.
time (UTC)temp
F
wind
direction
speed
MPH
gust
MPH
rain 1hr
in
rain 24hr
in
rain mn
in
humidity
%
barometer
mb
20260905052404 57 217 3.0 5.0 0.00 0.03 0.03 90 1014.8
20260905051904 57 204 3.0 5.0 0.00 0.03 0.03 90 1014.8
20260905051401 57 229 2.0 4.0 0.00 0.03 0.03 90 1014.8
20260905051149 57 248 2.0 3.0 0.00 0.03 0.03 89 1014.8
20260905050357 57 235 1.0 3.0 0.00 0.03 0.03 89 1014.8
20260905045857 57 218 2.0 4.0 0.00 0.03 0.03 89 1014.8
20260905045355 57 224 2.0 4.0 0.00 0.03 0.03 88 1014.8
20260905044858 57 217 2.0 3.0 0.00 0.03 0.03 88 1014.8
20260905044339 57 229 3.0 4.0 0.00 0.03 0.03 87 1014.8
20260905043831 58 230 2.0 4.0 0.00 0.03 0.03 87 1014.8
20260905043330 58 208 1.0 3.0 0.00 0.03 0.03 86 1014.8
20260905042831 58 236 0.0 2.0 0.00 0.03 0.03 85 1014.8
20260905042331 58 344 1.0 2.0 0.00 0.03 0.03 84 1014.8
20260905041835 58 346 2.0 3.0 0.00 0.03 0.03 84 1014.8
20260905041329 58 343 3.0 5.0 0.00 0.03 0.03 84 1014.8
20260905040826 58 359 4.0 7.0 0.00 0.03 0.03 84 1014.8
20260905040316 58 14 5.0 8.0 0.00 0.03 0.03 84 1014.8
20260905035852 58 344 3.0 8.0 0.00 0.03 0.03 84 1014.8
20260905034816 58 186 2.0 4.0 0.01 0.03 0.03 84 1014.5
20260905034606 58 207 3.0 6.0 0.02 0.03 0.03 84 1014.5
20260905033807 58 192 3.0 6.0 0.02 0.03 0.03 84 1014.4
20260905033304 58 177 4.0 6.0 0.02 0.03 0.03 84 1014.4
20260905032803 59 241 3.0 6.0 0.03 0.03 0.03 84 1014.4
20260905032306 59 219 3.0 6.0 0.03 0.03 0.03 84 1014.4
20260905031841 59 219 3.0 6.0 0.03 0.03 0.03 83 1014.4
20260905030802 59 207 3.0 6.0 0.03 0.03 0.03 84 1014.4
20260905030302 59 204 3.0 5.0 0.03 0.03 0.03 83 1014.4
20260905025805 59 227 4.0 9.0 0.03 0.03 0.03 83 1014.4
20260905025308 59 230 5.0 10.0 0.02 0.02 0.02 82 1014.3
20260905024801 59 242 5.0 10.0 0.02 0.02 0.02 81 1014.3
20260905024246 60 211 4.0 6.0 0.01 0.01 0.01 81 1014.3
20260905023743 61 250 4.0 7.0 0.01 0.01 0.01 80 1014.3
20260905023235 61 216 4.0 8.0 0.01 0.01 0.01 76 1014.3
20260905022732 61 171 4.0 8.0 0.00 0.00 0.00 75 1014.3
20260905022310 61 164 6.0 11.0 0.00 0.00 0.00 74 1014.1
20260905021232 63 146 8.0 17.0 0.00 0.00 0.00 69 1014.1
20260905020737 65 141 8.0 17.0 0.00 0.00 0.00 62 1013.9
20260905020233 66 141 6.0 15.0 0.00 0.00 0.00 55 1013.9
20260905015727 67 94 6.0 11.0 0.00 0.00 0.00 49 1013.9
20260905015227 67 110 8.0 14.0 0.00 0.00 0.00 50 1013.6
20260905014728 68 53 7.0 14.0 0.00 0.00 0.00 49 1013.6
20260905014226 68 96 8.0 16.0 0.00 0.00 0.00 49 1013.6
20260905013727 68 84 8.0 16.0 0.00 0.00 0.00 48 1013.2
20260905013526 68 44 6.0 14.0 0.00 0.00 0.00 46 1013.2
20260905013024 68 58 5.0 8.0 0.00 0.00 0.00 45 1013.2
20260905012223 68 73 7.0 11.0 0.00 0.00 0.00 46 1012.9
20260905011727 69 97 7.0 11.0 0.00 0.00 0.00 46 1012.9
20260905011225 69 48 6.0 11.0 0.00 0.00 0.00 47 1012.9
20260905010716 68 73 8.0 12.0 0.00 0.00 0.00 47 1012.9
20260905010516 69 53 6.0 12.0 0.00 0.00 0.00 47 1012.9
20260905005711 68 92 6.0 12.0 0.00 0.00 0.00 47 1012.9
20260905005210 68 69 6.0 12.0 0.00 0.00 0.00 48 1012.8
20260905004710 68 348 4.0 9.0 0.00 0.00 0.00 53 1012.8
20260905004208 69 340 3.0 7.0 0.00 0.00 0.00 53 1012.8
20260905003706 69 55 3.0 5.0 0.00 0.00 0.00 47 1012.8
20260905003207 68 301 3.0 5.0 0.00 0.00 0.00 49 1012.8
20260905003014 68 325 2.0 4.0 0.00 0.00 0.00 50 1012.8
20260905002205 68 321 3.0 5.0 0.00 0.00 0.00 51 1012.7
20260905001705 68 327 4.0 5.0 0.00 0.00 0.00 51 1012.7
20260905001209 67 329 4.0 5.0 0.00 0.00 0.00 52 1012.7
20260905001010 67 359 5.0 7.0 0.00 0.00 0.00 53 1012.6
20260905000205 67 14 5.0 7.0 0.00 0.00 0.00 55 1012.6
20260904235707 67 13 4.0 7.0 0.00 0.00 0.00 54 1012.6
20260904235214 68 350 3.0 4.0 0.00 0.00 0.00 54 1012.5
20260904234705 68 333 3.0 4.0 0.00 0.00 0.00 52 1012.5
20260904234206 68 325 3.0 4.0 0.00 0.00 0.00 52 1012.5
20260904233932 68 345 3.0 4.0 0.00 0.00 0.00 52 1012.5
20260904233133 68 327 3.0 4.0 0.00 0.00 0.00 52 1012.5
20260904232925 68 339 2.0 4.0 0.00 0.00 0.00 51 1012.7
20260904232143 68 312 2.0 3.0 0.00 0.00 0.00 52 1012.7
20260904231635 67 306 2.0 3.0 0.00 0.00 0.00 51 1012.7
20260904231136 67 302 2.0 3.0 0.00 0.00 0.00 52 1012.9
20260904230909 67 317 2.0 4.0 0.00 0.00 0.00 53 1012.9
20260904230132 67 329 2.0 4.0 0.00 0.00 0.00 53 1012.9
20260904225636 67 327 3.0 4.0 0.00 0.00 0.00 52 1012.9
20260904225131 67 200 3.0 5.0 0.00 0.00 0.00 53 1012.9
20260904224631 66 209 2.0 5.0 0.00 0.00 0.00 51 1012.9
20260904224133 66 231 3.0 4.0 0.00 0.00 0.00 53 1012.9
20260904223922 65 243 3.0 6.0 0.00 0.00 0.00 56 1012.9
20260904223133 64 209 3.0 6.0 0.00 0.00 0.00 61 1012.9
20260904222629 64 205 2.0 4.0 0.00 0.00 0.00 67 1012.9
20260904222129 63 180 3.0 6.0 0.00 0.00 0.00 69 1012.9
20260904221929 62 194 3.0 6.0 0.00 0.00 0.00 69 1012.9
20260904221130 62 212 3.0 5.0 0.00 0.00 0.00 73 1012.9
20260904220634 62 211 4.0 6.0 0.00 0.00 0.00 73 1012.9
20260904220134 62 221 4.0 7.0 0.00 0.00 0.00 74 1012.9
20260904215618 62 197 4.0 8.0 0.00 0.00 0.00 73 1012.9
20260904215106 62 213 5.0 11.0 0.00 0.00 0.00 71 1012.9
20260904214911 63 175 6.0 11.0 0.00 0.00 0.00 67 1012.9
20260904214103 64 204 6.0 13.0 0.00 0.00 0.00 63 1012.8
20260904213603 65 134 4.0 13.0 0.00 0.00 0.00 60 1012.8
20260904213103 65 221 1.0 5.0 0.00 0.00 0.00 57 1012.8
20260904212602 65 341 1.0 2.0 0.00 0.00 0.00 55 1012.6
20260904212112 64 315 2.0 3.0 0.00 0.00 0.00 58 1012.6
20260904211605 64 327 3.0 4.0 0.00 0.00 0.00 60 1012.6
20260904211102 64 350 4.0 6.0 0.00 0.00 0.00 61 1012.5
20260904210605 64 9 6.0 8.0 0.00 0.00 0.00 63 1012.5
20260904205601 64 359 5.0 7.0 0.00 0.00 0.00 64 1012.6
20260904205102 64 17 6.0 9.0 0.00 0.00 0.00 64 1012.6
20260904204601 64 23 6.0 9.0 0.00 0.00 0.00 65 1012.6
20260904204101 64 21 6.0 11.0 0.00 0.00 0.00 65 1012.8
20260904203850 63 4 8.0 11.0 0.00 0.00 0.00 67 1012.8
20260904203103 62 359 8.0 11.0 0.00 0.00 0.00 68 1012.8
20260904202606 62 26 8.0 11.0 0.00 0.00 0.00 71 1012.7
20260904202058 62 14 9.0 12.0 0.00 0.00 0.00 71 1012.7
20260904201548 62 4 10.0 12.0 0.00 0.00 0.00 71 1012.7
20260904201037 62 9 10.0 12.0 0.00 0.00 0.00 71 1012.7
20260904200535 62 18 9.0 12.0 0.00 0.00 0.00 68 1012.7
20260904200030 62 4 9.0 12.0 0.00 0.00 0.00 71 1012.7
20260904195530 62 4 9.0 12.0 0.00 0.00 0.00 70 1012.4
20260904195325 62 359 7.0 12.0 0.00 0.00 0.00 70 1012.4
20260904194529 63 9 5.0 9.0 0.00 0.00 0.00 68 1012.4
20260904194029 62 20 4.0 6.0 0.00 0.00 0.00 70 1012.6
20260904193530 62 346 6.0 9.0 0.00 0.00 0.00 71 1012.6
20260904193029 62 4 5.0 9.0 0.00 0.00 0.00 70 1012.6
20260904192534 62 342 4.0 6.0 0.00 0.00 0.00 71 1012.8
20260904192020 62 359 3.0 5.0 0.00 0.00 0.00 71 1012.8
20260904191514 62 21 3.0 4.0 0.00 0.00 0.00 72 1012.8
20260904191015 61 359 3.0 5.0 0.00 0.00 0.00 73 1012.8
20260904190806 61 342 4.0 5.0 0.00 0.00 0.00 75 1012.8
20260904190018 60 359 4.0 6.0 0.00 0.00 0.00 76 1012.8
20260904185516 60 359 4.0 6.0 0.00 0.00 0.00 77 1012.9
20260904185014 60 354 4.0 7.0 0.00 0.00 0.00 77 1012.9
20260904184517 60 359 4.0 7.0 0.00 0.00 0.00 78 1012.9
20260904184011 59 359 4.0 6.0 0.00 0.00 0.00 78 1012.9
20260904183514 59 9 4.0 6.0 0.00 0.00 0.00 79 1012.9
20260904183010 59 350 5.0 8.0 0.00 0.00 0.00 80 1012.9
20260904182801 58 341 6.0 10.0 0.00 0.00 0.00 81 1012.9
20260904182010 58 32 7.0 11.0 0.00 0.00 0.00 83 1012.9
20260904181510 58 19 8.0 11.0 0.00 0.00 0.00 83 1012.9
20260904181009 58 13 7.0 12.0 0.00 0.00 0.00 84 1012.9
20260904180511 58 9 6.0 12.0 0.00 0.00 0.00 84 1012.9
20260904180008 58 4 6.0 10.0 0.00 0.00 0.00 84 1012.9
20260904175803 57 16 6.0 10.0 0.00 0.00 0.00 85 1012.9
20260904175008 57 359 5.0 8.0 0.00 0.00 0.00 85 1012.9
20260904174508 57 351 5.0 9.0 0.00 0.00 0.00 85 1012.9
20260904174010 57 9 6.0 11.0 0.00 0.00 0.00 86 1012.9
20260904173809 56 359 8.0 11.0 0.00 0.00 0.00 86 1012.9
20260904173011 56 17 8.0 11.0 0.00 0.00 0.00 86 1012.9
20260904172507 57 21 8.0 11.0 0.00 0.00 0.00 85 1012.8
20260904172006 57 14 8.0 12.0 0.00 0.00 0.00 86 1012.8
20260904171503 57 14 8.0 12.0 0.00 0.00 0.00 85 1012.8
20260904170958 57 359 6.0 11.0 0.00 0.00 0.00 86 1012.8
20260904170456 57 14 5.0 7.0 0.00 0.00 0.00 86 1012.8
20260904165957 57 18 5.0 7.0 0.00 0.00 0.00 86 1012.8
20260904165453 56 18 5.0 7.0 0.00 0.00 0.00 87 1012.8
20260904164955 56 4 5.0 7.0 0.00 0.00 0.00 87 1012.8
20260904164856 56 355 5.0 7.0 0.00 0.00 0.00 87 1012.8
20260904163446 56 9 4.0 6.0 0.00 0.00 0.00 87 1012.7
20260904162944 56 19 4.0 6.0 0.00 0.00 0.00 87 1012.7
20260904162742 56 17 3.0 5.0 0.00 0.00 0.00 87 1012.7
20260904161938 56 359 2.0 3.0 0.00 0.00 0.00 87 1012.7
20260904161435 56 9 2.0 3.0 0.00 0.00 0.00 87 1012.7
20260904160932 56 354 2.0 3.0 0.00 0.00 0.00 87 1012.6
20260904160431 56 298 2.0 3.0 0.00 0.00 0.00 88 1012.6
20260904155934 56 281 1.0 3.0 0.00 0.00 0.00 88 1012.6
20260904155415 56 243 1.0 4.0 0.00 0.00 0.00 88 1012.4
20260904155221 56 292 1.0 4.0 0.00 0.00 0.00 88 1012.4
20260904154415 56 342 0.0 1.0 0.00 0.00 0.00 89 1012.4
20260904153913 55 331 1.0 2.0 0.00 0.00 0.00 89 1012.3
20260904153405 55 331 2.0 4.0 0.00 0.00 0.00 89 1012.3
20260904152904 55 335 2.0 4.0 0.00 0.01 0.00 89 1012.3
20260904152656 55 346 2.0 3.0 0.00 0.01 0.00 89 1012.3
20260904151901 55 344 2.0 3.0 0.00 0.01 0.00 89 1012.3
20260904151401 55 9 1.0 2.0 0.00 0.01 0.00 89 1012.3
20260904150902 55 19 1.0 3.0 0.00 0.01 0.00 89 1012.0
20260904150700 55 26 2.0 4.0 0.00 0.01 0.00 89 1012.0
20260904145845 55 32 2.0 5.0 0.00 0.01 0.00 89 1012.0
20260904145347 55 359 2.0 5.0 0.00 0.01 0.00 89 1011.9
20260904144838 54 13 2.0 4.0 0.00 0.01 0.00 89 1011.9
20260904144334 54 331 2.0 3.0 0.00 0.01 0.00 89 1011.9
20260904143826 55 304 3.0 5.0 0.00 0.01 0.00 89 1011.8
20260904143321 55 321 3.0 7.0 0.00 0.01 0.00 89 1011.8
20260904142814 55 335 4.0 7.0 0.00 0.01 0.00 89 1011.8
20260904142306 54 333 3.0 5.0 0.00 0.01 0.00 89 1011.8
20260904141805 54 4 3.0 5.0 0.00 0.01 0.00 89 1011.8
20260904141305 54 342 3.0 5.0 0.00 0.01 0.00 89 1011.8
20260904140803 54 339 3.0 6.0 0.00 0.02 0.00 89 1011.4
20260904140310 54 359 3.0 6.0 0.00 0.02 0.00 89 1011.4
20260904135306 54 9 2.0 4.0 0.00 0.02 0.00 89 1011.1
20260904134826 54 17 2.0 4.0 0.00 0.02 0.00 89 1011.1
20260904133816 54 348 2.0 3.0 0.00 0.02 0.00 89 1011.1
20260904132749 54 344 1.0 4.0 0.00 0.02 0.00 89 1011.1
20260904132246 54 335 0.0 2.0 0.00 0.02 0.00 88 1010.9
20260904131731 54 335 1.0 2.0 0.00 0.02 0.00 88 1010.9
20260904131230 54 335 1.0 2.0 0.00 0.02 0.00 88 1010.9
20260904130732 54 334 1.0 2.0 0.00 0.02 0.00 88 1010.9
20260904130232 54 306 1.0 2.0 0.00 0.03 0.00 88 1010.9
20260904130023 54 254 1.0 3.0 0.00 0.03 0.00 88 1010.9
20260904125222 54 237 1.0 3.0 0.00 0.03 0.00 88 1011.0
20260904124725 54 244 1.0 3.0 0.00 0.03 0.00 88 1011.0
20260904124210 54 331 1.0 2.0 0.00 0.03 0.00 88 1011.0
20260904123658 54 331 1.0 2.0 0.00 0.03 0.00 88 1010.8
20260904123157 54 347 2.0 4.0 0.00 0.03 0.00 88 1010.8
20260904122658 54 351 2.0 4.0 0.00 0.03 0.00 88 1010.8
20260904122159 54 339 2.0 3.0 0.00 0.03 0.00 88 1010.8
20260904121641 54 345 2.0 3.0 0.00 0.03 0.00 88 1010.8
20260904121435 54 339 2.0 3.0 0.00 0.03 0.00 88 1010.8
20260904120631 54 332 1.0 2.0 0.00 0.03 0.00 88 1010.8
20260904120131 54 323 0.0 1.0 0.00 0.03 0.00 88 1010.8
20260904115631 54 323 1.0 2.0 0.00 0.04 0.00 88 1010.8
20260904115134 54 343 1.0 2.0 0.00 0.04 0.00 88 1010.8
20260904114631 54 354 1.0 2.0 0.00 0.04 0.00 88 1010.8
20260904114146 54 354 1.0 3.0 0.00 0.04 0.00 88 1010.7
20260904113633 54 359 1.0 2.0 0.00 0.05 0.00 88 1010.7
20260904113121 54 333 1.0 2.0 0.00 0.05 0.00 88 1010.7
20260904112917 55 319 1.0 2.0 0.00 0.05 0.00 88 1010.4
20260904112150 55 337 1.0 2.0 0.00 0.05 0.00 88 1010.4
20260904111358 55 334 1.0 3.0 0.00 0.05 0.00 88 1010.3
20260904110613 55 323 2.0 3.0 0.00 0.06 0.00 88 1010.3
20260904110108 55 336 1.0 3.0 0.00 0.06 0.00 88 1010.3
20260904105609 55 19 1.0 2.0 0.00 0.06 0.00 88 1010.3
20260904105043 55 19 1.0 2.0 0.00 0.06 0.00 88 1010.3
20260904104533 55 19 1.0 2.0 0.00 0.06 0.00 87 1010.3
20260904104325 55 19 1.0 2.0 0.00 0.06 0.00 87 1010.2
20260904103511 55 19 1.0 2.0 0.00 0.06 0.00 87 1010.2
20260904103045 55 319 1.0 2.0 0.00 0.06 0.00 87 1010.2
20260904102310 55 319 1.0 2.0 0.00 0.06 0.00 87 1010.2
20260904101515 55 319 1.0 2.0 0.00 0.06 0.00 87 1010.2
20260904101017 55 319 0.0 2.0 0.00 0.06 0.00 86 1010.0
20260904100502 55 319 0.0 1.0 0.00 0.06 0.00 86 1010.0
20260904100005 55 319 0.0 1.0 0.00 0.06 0.00 86 1010.0
20260904095509 55 319 0.0 0.0 0.00 0.06 0.00 85 1009.9
20260904095222 55 319 0.0 1.0 0.00 0.06 0.00 85 1009.9
20260904094444 55 319 0.0 1.0 0.00 0.06 0.00 85 1009.9
20260904093913 55 319 0.0 1.0 0.00 0.06 0.00 85 1010.0
20260904093420 55 319 0.0 1.0 0.00 0.06 0.00 85 1010.0
20260904092905 55 319 1.0 2.0 0.00 0.06 0.00 85 1010.0
20260904092646 55 319 1.0 2.0 0.00 0.06 0.00 85 1010.1
20260904091851 55 321 1.0 3.0 0.00 0.06 0.00 84 1010.1
20260904091352 55 314 2.0 3.0 0.00 0.06 0.00 84 1010.1
20260904091118 55 323 2.0 3.0 0.00 0.06 0.00 84 1010.1
20260904090339 55 303 2.0 5.0 0.00 0.06 0.00 83 1010.1
20260904085829 56 294 3.0 5.0 0.00 0.06 0.00 83 1010.1
20260904085330 56 285 2.0 4.0 0.00 0.06 0.00 82 1010.2
20260904084829 56 296 1.0 3.0 0.00 0.06 0.00 83 1010.2
20260904084333 56 323 1.0 2.0 0.00 0.06 0.00 83 1010.2
20260904084058 56 321 1.0 2.0 0.00 0.06 0.00 83 1010.2
20260904083330 56 331 2.0 3.0 0.00 0.06 0.00 84 1010.2
20260904083114 56 359 2.0 3.0 0.00 0.06 0.00 84 1010.2
20260904082331 56 333 2.0 3.0 0.00 0.06 0.00 84 1010.2
20260904081836 56 331 2.0 3.0 0.00 0.06 0.00 84 1010.2
20260904081333 56 351 2.0 3.0 0.00 0.06 0.00 84 1010.2
20260904080819 56 350 2.0 3.0 0.00 0.06 0.00 84 1010.2
20260904080323 56 19 2.0 3.0 0.00 0.06 0.00 84 1010.2
20260904075815 56 359 2.0 3.0 0.00 0.06 0.00 84 1010.2
20260904075311 56 18 2.0 4.0 0.00 0.06 0.00 84 1010.2
20260904074806 56 21 2.0 4.0 0.00 0.07 0.00 84 1010.2
20260904074305 56 4 2.0 3.0 0.00 0.07 0.00 84 1010.2
20260904073802 56 9 2.0 3.0 0.00 0.07 0.00 84 1010.0
20260904073302 56 359 2.0 4.0 0.00 0.07 0.00 84 1010.0
20260904072805 56 359 2.0 4.0 0.00 0.07 0.00 84 1010.0
20260904072313 56 355 2.0 4.0 0.00 0.07 0.00 84 1009.9
20260904071808 56 9 2.0 3.0 0.00 0.07 0.00 84 1009.9
20260904071258 56 16 2.0 3.0 0.00 0.07 0.00 84 1009.9
20260904070752 56 26 2.0 3.0 0.00 0.07 0.00 84 1009.8
20260904070245 56 18 1.0 3.0 0.00 0.07 0.00 83 1009.8
20260904070023 56 350 1.0 3.0 0.00 0.07 0.07 83 1009.8
20260904065233 56 250 1.0 2.0 0.00 0.07 0.07 83 1009.8
20260904065020 56 250 1.0 2.0 0.00 0.07 0.07 83 1009.8
20260904064231 56 9 0.0 1.0 0.00 0.07 0.07 83 1009.8
20260904063729 56 9 1.0 2.0 0.00 0.07 0.07 83 1009.8
20260904063235 56 9 1.0 3.0 0.00 0.07 0.07 83 1009.8
20260904062729 56 9 2.0 3.0 0.00 0.07 0.07 83 1009.8
20260904062230 56 9 2.0 3.0 0.00 0.07 0.07 83 1009.8
20260904061731 56 4 2.0 3.0 0.00 0.07 0.07 83 1009.8
20260904061525 56 23 1.0 3.0 0.00 0.07 0.07 82 1009.8
20260904060729 56 75 0.0 2.0 0.00 0.07 0.07 82 1009.8
20260904060512 56 152 0.0 1.0 0.00 0.07 0.07 81 1009.8
20260904055737 56 152 1.0 2.0 0.00 0.07 0.07 80 1009.8
20260904055230 56 152 2.0 4.0 0.00 0.07 0.07 80 1009.9
20260904054732 56 153 2.0 4.0 0.00 0.07 0.07 80 1009.9
20260904054233 56 171 1.0 3.0 0.00 0.07 0.07 81 1009.9
20260904053734 56 359 1.0 2.0 0.00 0.07 0.07 82 1009.8
20260904053224 56 359 1.0 2.0 0.00 0.07 0.07 82 1009.8
20260904052712 56 337 0.0 2.0 0.00 0.07 0.07 82 1009.8